TimeEST,TemperatureF,Dew PointF,Humidity,Sea Level PressureIn,VisibilityMPH,Wind Direction,Wind SpeedMPH,Gust SpeedMPH,PrecipitationIn,Events,Conditions,WindDirDegrees,DateUTC
12:53 AM,46.0,23.0,40,29.63,10.0,SSW,12.7,21.9,N/A,,Clear,200,2013-01-20 05:53:00
1:53 AM,46.0,24.1,42,29.59,10.0,SSW,12.7,25.3,N/A,,Clear,200,2013-01-20 06:53:00
2:53 AM,46.0,25.0,44,29.56,10.0,SSW,15.0,24.2,N/A,,Clear,200,2013-01-20 07:53:00
3:53 AM,46.0,26.1,46,29.52,10.0,SSW,17.3,27.6,N/A,,Clear,210,2013-01-20 08:53:00
4:53 AM,46.0,26.1,46,29.49,10.0,SSW,18.4,31.1,N/A,,Partly Cloudy,210,2013-01-20 09:53:00
5:53 AM,45.0,28.0,52,29.48,10.0,SW,18.4,28.8,N/A,,Mostly Cloudy,230,2013-01-20 10:53:00
6:37 AM,37.4,33.8,87,29.53,5.0,West,21.9,42.6,0.01,Rain,Rain,280,2013-01-20 11:37:00
6:42 AM,37.4,32.0,81,29.53,3.0,West,26.5,42.6,0.03,Rain,Rain,270,2013-01-20 11:42:00
6:51 AM,37.4,33.8,87,29.53,5.0,West,17.3,42.6,0.03,Rain,Light Rain,270,2013-01-20 11:51:00
6:53 AM,37.0,32.0,82,29.56,7.0,West,18.4,31.1,0.03,Rain,Light Rain,270,2013-01-20 11:53:00
7:09 AM,37.4,32.0,81,29.54,10.0,WSW,18.4,28.8,0.00,Rain,Light Rain,250,2013-01-20 12:09:00
7:53 AM,39.0,25.0,57,29.57,10.0,WSW,25.3,36.8,0.00,,Clear,250,2013-01-20 12:53:00
8:53 AM,35.1,21.9,59,29.68,10.0,West,21.9,35.7,0.00,,Mostly Cloudy,270,2013-01-20 13:53:00
9:53 AM,32.0,16.0,52,29.76,10.0,West,23.0,44.9,N/A,,Scattered Clouds,260,2013-01-20 14:53:00
10:53 AM,32.0,16.0,52,29.80,10.0,WSW,23.0,41.4,N/A,,Mostly Cloudy,250,2013-01-20 15:53:00
11:53 AM,30.0,16.0,56,29.82,10.0,West,18.4,29.9,0.00,Snow,Light Snow,260,2013-01-20 16:53:00
12:03 PM,28.4,19.4,69,29.80,2.0,West,23.0,39.1,0.00,Snow,Light Snow,260,2013-01-20 17:03:00
12:10 PM,28.4,19.4,69,29.81,1.8,West,23.0,39.1,0.00,Snow,Light Snow,260,2013-01-20 17:10:00
12:14 PM,26.6,19.4,74,29.81,2.5,West,18.4,36.8,0.00,Snow,Light Snow,260,2013-01-20 17:14:00
12:23 PM,28.4,19.4,69,29.81,5.0,WSW,21.9,27.6,0.00,Snow,Light Snow,250,2013-01-20 17:23:00
12:53 PM,28.9,15.1,56,29.85,10.0,WSW,20.7,27.6,0.00,,Overcast,250,2013-01-20 17:53:00
1:49 PM,26.6,15.8,64,29.87,3.0,West,21.9,33.4,0.00,Snow,Light Snow,260,2013-01-20 18:49:00
1:53 PM,26.1,15.1,63,29.91,3.0,West,24.2,32.2,0.00,Snow,Light Snow,260,2013-01-20 18:53:00
2:12 PM,26.6,12.2,55,29.88,9.0,WSW,29.9,36.8,0.00,,Overcast,250,2013-01-20 19:12:00
2:53 PM,26.1,12.0,55,29.93,10.0,West,20.7,32.2,0.00,,Overcast,260,2013-01-20 19:53:00
3:53 PM,25.0,10.0,53,29.96,10.0,West,16.1,31.1,N/A,,Overcast,260,2013-01-20 20:53:00
4:53 PM,24.1,12.0,60,29.98,7.0,West,17.3,28.8,0.00,Snow,Light Snow,260,2013-01-20 21:53:00
5:53 PM,24.1,12.0,60,30.00,10.0,WSW,16.1,24.2,0.00,,Overcast,240,2013-01-20 22:53:00
6:39 PM,21.2,15.8,80,30.00,2.5,West,11.5,18.4,0.00,Snow,Light Snow,270,2013-01-20 23:39:00
6:42 PM,21.2,15.8,80,30.00,1.8,West,11.5,18.4,0.00,Snow,Light Snow,280,2013-01-20 23:42:00
6:51 PM,21.2,17.6,86,30.00,0.8,West,11.5,-,0.00,Snow,Light Snow,270,2013-01-20 23:51:00
6:53 PM,21.0,17.1,85,30.04,0.8,West,10.4,17.3,0.00,Snow,Light Snow,270,2013-01-20 23:53:00
7:16 PM,21.2,17.6,86,30.01,1.2,WSW,13.8,-,0.00,Snow,Light Snow,250,2013-01-21 00:16:00
7:35 PM,21.2,17.6,86,30.02,1.8,WSW,10.4,-,0.00,Snow,Light Snow,250,2013-01-21 00:35:00
7:50 PM,21.2,17.6,86,30.02,0.8,Variable,5.8,-,0.00,Snow,Light Snow,0,2013-01-21 00:50:00
7:53 PM,21.0,17.1,85,30.06,0.8,WNW,9.2,-,0.00,Snow,Light Snow,300,2013-01-21 00:53:00
8:18 PM,19.4,15.8,86,30.02,1.2,West,16.1,26.5,0.00,Snow,Light Snow,280,2013-01-21 01:18:00
8:30 PM,19.4,14.0,80,30.02,2.5,West,13.8,21.9,0.00,Snow,Light Snow,280,2013-01-21 01:30:00
8:37 PM,19.4,12.2,74,30.02,8.0,West,15.0,21.9,0.00,Snow,Light Snow,270,2013-01-21 01:37:00
8:44 PM,19.4,12.2,74,30.02,9.0,West,10.4,20.7,0.00,,Overcast,260,2013-01-21 01:44:00
8:53 PM,21.0,12.0,68,30.06,10.0,West,10.4,-,0.00,,Overcast,260,2013-01-21 01:53:00
9:53 PM,21.0,9.0,60,30.08,10.0,West,11.5,19.6,N/A,,Overcast,280,2013-01-21 02:53:00
10:53 PM,19.9,9.0,62,30.08,10.0,Variable,6.9,-,N/A,,Overcast,0,2013-01-21 03:53:00
11:53 PM,19.0,6.1,57,30.08,10.0,West,6.9,-,N/A,,Overcast,280,2013-01-21 04:53:00